Regional Weather Roundup
Issued by NWS Upton, NY

Current Version | Previous Version | Text Only | Print | Product List | Glossary On
Versions: 1 2 3 4 5 6 7 8 9 10 11 12 13 14 15 16 17 18 19 20 21 22 23 24 25 26 27 28 29 30 31 32 33 34 35 36 37 38 39 40 41 42 43 44 45 46 47 48 49 50
000 ASUS41 KOKX 291205 RWROKX REGIONAL WEATHER ROUNDUP NATIONAL WEATHER SERVICE NEW YORK NY 800 AM EDT FRI JUL 29 2016 NOTE: "FAIR" INDICATES FEW OR NO CLOUDS BELOW 12,000 FEET WITH NO SIGNIFICANT WEATHER AND/OR OBSTRUCTIONS TO VISIBILITY. NYZ071-072-176-178-NJZ106-104-291300- NEW YORK CITY METRO AREA CITY SKY/WX TMP DP RH WIND PRES REMARKS Central Park LGT RAIN 70 67 90 VRB3 29.88R FOG LaGuardia APRT LGT RAIN 72 68 87 NE13 29.84R FOG Kennedy INTL RAIN 71 68 90 NE13 29.85R FOG Newark/Liberty RAIN 70 70 100 N10 29.84R FOG Bronx Bot Gard N/A 68 66 94 NE1 29.84F Wall St Helipt CLOUDY 72 70 94 NE13 29.85R Teterboro RAIN 71 67 87 VRB6 29.84R FOG $$ NYZ177-179-078>081-291300- LONG ISLAND NEW YORK CITY SKY/WX TMP DP RH WIND PRES REMARKS Farmingdale CLOUDY 70 68 93 N14 29.84R MacArthur/ISP LGT RAIN 71 69 93 N12 29.82F FOG Shirley RAIN 70 69 97 N8 29.84R FOG Riverhead NOT AVBL Westhampton RAIN 71 68 90 N10 29.85S FOG Southhampton N/A 72 70 94 N3 29.79S Bridgehampton N/A 72 70 94 E2 29.83R East Hampton LGT RAIN 71 68 92 N8 29.84R Montauk N/A 73 70 90 N8 29.84F $$ NYZ052-065-067-291300- HUDSON VALLEY CITY SKY/WX TMP DP RH WIND PRES REMARKS White Plains LGT RAIN 69 66 90 NE5 29.84F Newburgh LGT RAIN 70 70 100 NE6 29.89R FOG Montgomery MOSUNNY 72 70 93 N7 29.88R Poughkeepsie CLOUDY 72 68 87 N3 29.87R Albany CLOUDY 70 67 90 N5 29.89R $$ NJZ001-105-106-008-010-013-015-019>022-104-291300- NEW JERSEY CITY SKY/WX TMP DP RH WIND PRES REMARKS Newark/Liberty RAIN 70 70 100 N10 29.84R FOG Teterboro RAIN 71 67 87 VRB6 29.84R FOG Caldwell RAIN 71 69 93 N3 29.87R FOG Morristown LGT RAIN 70 66 88 N5 29.87R FOG Somerville RAIN 71 69 93 VRB5 29.85R FOG Linden RAIN 71 69 93 NE3 29.86R Sussex CLOUDY 71 70 96 N3 29.88R Abdover N/A 70 68 93 N3 29.89R Trenton RAIN 71 68 90 N9 29.85R FOG Millville RAIN 73 72 96 NW8 29.81R FOG Atlantic City LGT RAIN 75 73 94 N6 29.80R FOG Wrightstown HVY RAIN 72 70 94 N7 29.80R FOG Toms River HVY RAIN 72 71 97 N8 29.82R FOG Belmar RAIN 70 69 97 NE15 29.80F FOG $$ PAZ047>061-062-071-291300- EASTERN PENNSYLVANIA CITY SKY/WX TMP DP RH WIND PRES REMARKS Philadelphia CLOUDY 73 71 93 N12 29.84R Allentown CLOUDY 73 70 90 N3 29.87R FOG Scranton CLOUDY 71 69 93 W6 29.90R FOG $$ CTZ002-004>006-009-010-012-RIZ004-006-007-MAZ004-011-015-291300- SOUTHERN NEW ENGLAND IN CT CITY SKY/WX TMP DP RH WIND PRES REMARKS Bradley INTL LGT RAIN 72 69 90 N3 29.87S FOG Hartford LGT RAIN 76 72 87 N3 29.85F Danbury LGT RAIN 70 67 90 CALM 29.88S Wtrbury/Oxford LGT RAIN 70 64 83 VRB5 29.89S Bridgeport LGT RAIN 73 67 81 NE8 29.85R Meriden LGT RAIN 74 70 87 N5 29.86S New Haven LGT RAIN 71 68 90 NE7 29.85S Chester RAIN 70 66 88 N8 29.87S Groton LGT RAIN 73 68 84 N12 29.83F Wilimantic LGT RAIN 74 73 97 N3 29.87S FOG IN RI CITY SKY/WX TMP DP RH WIND PRES REMARKS Providence LGT RAIN 74 68 81 N7 29.87R Block Island CLOUDY 73 72 96 N7 29.84F Westerly LGT RAIN 74 69 85 N5 29.84F IN MA CITY SKY/WX TMP DP RH WIND PRES REMARKS Boston LGT RAIN 73 69 87 N14 29.85F Worchester CLOUDY 70 66 87 NW7 29.90S Westfield LGT RAIN 72 69 90 N5 29.88R Provincetown CLOUDY 74 73 97 SW3 29.85F Nantucket CLOUDY 73 72 96 SE9 29.84F $$ ANZ330-335-338-340-345-350-353-355-291300- COASTAL MARINE OBSERVATIONS STATION/POSITION TIME SKY/WX TEMP WIND PRES VSBY WAVE AIR SEA DIR/SP/G HT/PER (UTC) (F) (DEG/KT/KT) (MB) (MI) (FT/S) NY HARB ENTRANCE 1050 71 73 20/ 14/ 16 1009.3 2/ 3 20S FIRE ISLAND 1050 75 77 70/ 12/ 14 1008.6 1/ 7 GREAT SOUTH BAY 1100 72 82 360/ 12/ 16 N/A 23 SSW MONTAUK P 1050 74 73 320/ 4/ 6 1010.1 1/ 8 15 E BARNEGAT LI 1100 78 N/A 2/ 4 HUDSON CANYON 1050 76 79 1009.0 1/ 7 KINGS POINT 1100 70 73 1010.1 EXECUTION ROCKS NOT AVBL CENTRAL LI SOUND NOT AVBL EASTERN LI SOUND NOT AVBL ROBBINS REEF 1100 72 50/ 16/ 19 1009.3 $$ >>>>>>>>>>>>>>>>>>>>>>>>>>>> KEY <<<<<<<<<<<<<<<<<<<<<<<<<<< > < > SKY/WX - Sky Condition/Present Weather < > TMP - Temperature in Fahrenheit < > DP - Dew Point in Fahrenheit < > RH - Relative Humidity in Percent < > WIND - Direction (from) and Speed in MPH < > PRES - Mean Sea Level Pressure (inches of Hg) < > WCI - Wind Chill Index < > VSB - VISIBILITY IN MILES < > HX - HEAT INDEX < > TC - TEMPERATURE IN CELSIUS < > VRB - VARIABLE WIND DIRECTION < > < >>>>>>>>>>>>>>>>>>>>>>>>>>>> KEY <<<<<<<<<<<<<<<<<<<<<<<<<<<

USA.gov is the U.S. government's official web portal to all federal, state and local government web resources and services.